カタログに戻る

STARLINK-31091

運用中通信VLEO
NORAD 58629·PAYLOAD·🇺🇸 United States

打ち上げ Dec 23, 2023 から Cape Canaveral Space Force Station

Loading…

次のパス (今後24時間)

TLE

最新Source: CelesTrak SupGP

元期: Sep 15, 2026, 03:26 UTC

1 58629C 23203M   26258.14354167 -.00020771  00000+0 -75228-3 0  2587
2 58629  43.0006  80.8012 0001449 270.3948  84.1958 15.27590084    12

AllMySatでSTARLINK-31091をリアルタイム追跡

Download on the App Store